CAPE
0 0 0 0 0 0 0 0 0 0 0 0 0 0 0 0 0 0 0 0 0 0 0 0 0 0 941 1570 1332 1279 1523 1124 1242 1284 1186 1076 1024 1130 1162 1369 1437 1508 1408 1464 1254 876 920 927 1027 911 864 860 744 604 685 802 829 722 715 986 1283 1340 1110 975 1035 1049 1086 1147 1189 1273 1244 1221 1272 1297 1201 863 810 771 717 758 690 917 838 907 917 988
0 0 0 0 0 0 0 0 0 0 0 0 0 0 0 0 0 0 0 0 0 0 0 0 0 0 888 1478 1580 1223 1562 1263 1217 1328 1306 1303 1187 1062 1306 1554 1476 1302 1502 1488 1243 1005 883 855 957 812 832 679 563 598 779 982 1010 1097 1260 1364 1432 1331 1055 966 1054 1166 1142 1180 1259 1212 1221 1280 1056 876 827 672 761 588 585 726 797 936 964 823 840 678
0 0 0 0 0 0 0 0 0 0 0 0 0 0 0 0 0 0 0 0 0 0 0 0 0 0 1040 1286 1505 1363 1442 1368 1167 1246 1190 1127 1108 1055 1346 1445 1090 1035 1324 1363 1252 989 1115 890 828 808 860 645 544 624 914 1076 1129 1286 1371 1372 1405 1343 1229 1185 1216 1257 1232 1197 1223 1292 1148 1070 680 609 617 636 529 550 710 848 900 916 1000 855 633 216
0 0 0 0 0 0 0 0 0 0 0 0 0 0 0 0 0 0 0 0 0 0 0 0 0 0 839 1295 1379 1505 1405 1143 1211 1297 1265 1192 1040 988 1282 1364 1066 988 1069 1315 1165 1033 1271 943 847 860 852 696 557 580 863 1018 1181 1290 1300 1302 1360 1361 1279 1226 1206 1162 1151 1160 1134 1166 1035 922 644 556 599 623 585 675 805 773 840 976 848 698 403 10
0 0 0 0 0 0 0 0 0 0 0 0 0 0 0 0 0 0 0 0 0 0 0 0 0 0 954 1171 1296 1563 1501 1088 1252 1458 1556 1496 1359 1153 1189 1303 1177 998 818 1024 1025 1043 1199 889 783 869 844 708 584 575 795 978 1179 1290 1398 1379 1306 1293 1297 1254 1184 1120 986 1011 1040 1018 896 567 457 517 642 716 714 789 858 653 570 290 228 18 6 6
0 0 0 0 0 0 0 0 0 0 0 0 0 0 0 0 0 0 0 0 0 0 0 0 0 0 828 1161 1237 1285 1296 1053 1130 1451 1729 1722 1582 1273 1384 1477 1428 1228 889 750 1042 1078 1144 994 801 877 803 728 628 550 787 1064 1213 1349 1457 1367 1291 1197 1156 1106 1190 1112 1070 1064 848 771 533 407 391 674 796 941 996 720 694 703 616 441 262 10 18 22
0 0 0 0 0 0 0 0 0 0 0 0 0 0 0 0 0 0 0 0 0 0 0 0 0 0 497 1003 1050 1254 1401 1239 1278 1554 1770 1624 1379 1119 1102 1506 1489 1481 1212 982 822 992 998 1096 971 869 820 691 594 622 739 1056 1232 1378 1390 1329 1115 1034 1037 1038 1047 986 956 917 748 567 422 410 512 732 896 913 838 830 836 828 533 408 244 9 79 36
0 0 0 0 0 0 0 0 0 0 0 0 0 0 0 0 0 0 0 0 0 0 0 0 0 0 430 527 897 1143 1254 1122 1086 1329 1521 1445 1082 905 796 1047 1113 1223 1162 1030 913 1082 1004 1022 1051 985 904 952 983 1158 1148 1135 1274 1435 1330 1233 1124 1020 1001 978 925 818 749 743 671 432 370 481 651 823 820 771 808 765 742 646 516 332 14 97 79 67
0 0 0 0 0 0 0 0 0 0 0 0 0 0 0 0 0 0 0 0 0 0 0 0 0 0 51 647 831 1123 1189 1113 1080 1222 1324 1211 971 845 844 921 861 916 958 864 822 1049 1201 925 1129 993 969 1278 1392 1343 1265 1298 1453 1393 1310 1245 1119 1037 946 929 935 808 699 620 511 423 453 546 602 616 647 691 745 652 570 534 384 212 68 86 115 35
0 0 0 0 0 0 0 0 0 0 0 0 0 0 0 0 0 0 0 0 0 0 0 0 0 0 0 959 874 992 1006 1035 1038 1140 1330 1202 1083 956 832 891 906 845 670 819 928 1058 1160 1081 995 961 1194 1446 1458 1403 1341 1342 1363 1348 1270 1169 1074 975 951 954 908 780 711 644 455 444 470 494 539 475 486 574 559 585 531 422 207 81 92 123 43 29
0 0 0 0 0 0 0 0 0 0 0 0 0 0 0 0 0 0 0 0 0 0 0 0 0 0 344 858 833 710 661 903 1070 1123 1203 1276 1242 1018 818 826 905 710 817 822 907 1092 1230 1222 988 994 1371 1433 1424 1359 1284 1292 1368 1363 1194 1056 1050 1025 956 963 856 727 564 435 379 409 449 369 436 476 569 593 606 488 434 270 126 58 34 40 37 33
0 0 0 0 0 0 0 0 0 0 0 0 0 0 0 0 0 0 0 0 0 0 0 0 0 0 0 545 889 705 617 633 873 1050 1144 1051 1035 1111 953 957 992 885 865 744 879 1077 1327 1296 1129 1187 1385 1338 1347 1387 1305 1400 1425 1362 1238 1186 1194 1152 1084 909 762 655 495 490 420 396 390 384 465 604 642 554 447 408 336 138 148 102 26 0 0 0
0 0 0 0 0 0 0 0 0 0 0 0 0 0 0 0 0 0 0 0 0 0 0 0 0 0 0 182 827 801 647 551 777 789 1024 894 886 962 979 1022 775 878 877 832 777 1122 1341 1376 1142 1206 1331 1402 1348 1408 1432 1480 1390 1292 1234 1301 1272 1188 1010 743 644 590 551 460 384 338 377 493 542 579 586 485 384 321 188 179 77 62 0 0 0 18
0 0 0 0 0 0 0 0 0 0 0 0 0 0 0 0 0 0 0 0 0 0 0 0 0 0 0 0 446 621 476 464 667 760 854 818 620 665 858 948 914 946 858 966 1254 1309 1248 1354 1230 1167 1341 1424 1380 1417 1414 1461 1380 1292 1240 1268 1257 1174 938 663 689 674 612 548 524 570 580 590 616 598 563 464 403 174 7 0 0 0 0 7 0 0
0 0 0 0 0 0 0 0 0 0 0 0 0 0 0 0 0 0 0 0 0 0 0 0 0 0 0 0 266 551 557 501 528 662 866 949 833 737 909 891 933 941 1041 1140 1296 1380 1324 1312 1161 1180 1338 1448 1431 1382 1365 1392 1404 1283 1228 1191 1179 1042 785 646 641 673 659 610 589 572 567 572 574 534 492 394 275 0 0 0 0 0 0 0 0 0
0 0 0 0 0 0 0 0 0 0 0 0 0 0 0 0 0 0 0 0 0 0 0 0 0 0 0 0 9 323 587 520 425 571 721 1006 826 592 731 817 852 811 938 990 1391 1331 1320 1248 1076 1221 1326 1410 1382 1349 1339 1362 1368 1266 1177 1163 1059 857 713 710 685 694 676 605 530 494 466 472 443 402 353 328 243 106 0 0 0 0 0 0 0 1
0 0 0 0 0 0 0 0 0 0 0 0 0 0 0 0 0 0 0 0 0 0 0 0 0 0 0 0 138 399 498 490 594 724 763 913 924 906 824 847 827 873 1020 1179 1486 1336 1280 1229 1250 1301 1264 1245 1249 1296 1326 1340 1304 1168 1070 1129 952 776 690 670 649 602 571 539 477 444 402 346 334 333 238 102 277 86 0 0 0 0 0 0 1 9
0 0 0 0 0 0 0 0 0 0 0 0 0 0 0 0 0 0 0 0 0 0 0 0 0 0 0 0 349 467 490 273 644 939 980 983 1076 1107 852 794 906 1004 1100 1190 1448 1408 1377 1325 1338 1294 1228 1188 1221 1279 1248 1265 1204 1086 1113 1079 916 766 675 644 618 579 523 474 419 355 87 0 0 71 0 185 258 65 0 0 0 0 0 0 0 0
0 1 0 0 0 0 0 0 0 0 0 0 0 0 0 0 0 0 0 0 0 0 0 0 0 0 0 0 177 255 386 210 366 1094 1178 1193 1185 1205 1130 1065 894 1006 1060 1184 1424 1482 1407 1391 1354 1254 1170 1203 1214 1184 1164 1154 1056 999 1026 945 824 750 698 619 610 556 516 450 382 160 0 0 0 0 69 302 204 49 0 0 1 3 0 0 0 0
0 4 0 0 0 0 0 0 0 0 0 0 0 0 0 0 0 0 0 0 0 0 0 0 0 0 0 0 0 251 348 428 655 1050 1171 1234 1375 1288 1186 1470 1206 1165 1143 1230 1444 1481 1427 1402 1334 1267 1219 1197 1118 1068 1058 1058 1003 944 873 801 719 669 641 614 562 541 451 422 348 241 0 0 0 255 402 255 241 33 0 3 6 1 0 0 0 0
7 0 0 0 0 0 0 0 0 0 0 0 0 0 0 0 0 0 0 0 0 0 0 0 0 0 0 0 0 127 380 646 887 1008 1067 1140 1270 1280 1412 1294 1126 1200 1390 1424 1394 1400 1385 1422 1328 1301 1222 1197 1148 986 986 969 929 830 742 679 642 601 579 585 550 525 409 341 243 206 95 0 287 515 457 311 222 0 2 6 0 0 0 0 0 0
11 0 0 0 0 0 0 0 0 0 0 0 0 0 0 0 0 0 0 0 0 0 0 0 0 0 0 3 0 298 557 673 738 859 949 1002 1280 1453 1596 1585 1444 1531 1549 1574 1587 1380 1402 1347 1504 1337 1225 1194 1104 939 926 912 886 800 727 609 498 546 580 565 578 476 268 226 166 8 0 243 462 473 282 256 7 4 8 3 0 0 0 0 0 0
103 0 7 0 0 0 0 0 0 0 0 0 0 0 0 0 0 0 0 0 0 0 0 0 0 0 144 771 0 157 448 594 519 723 790 928 1251 1524 1643 1696 1696 1625 1641 1653 1598 1286 1161 1368 1445 1399 1321 1190 1112 923 862 893 886 787 769 678 596 558 550 487 420 248 252 134 0 35 223 321 390 290 236 7 5 6 5 0 0 0 0 0 0 0
175 0 0 2 0 0 0 0 0 0 0 0 0 0 0 0 0 0 0 0 0 0 0 0 0 62 272 753 93 59 201 536 592 639 797 836 1104 1501 1529 1670 1745 1653 1644 1630 1592 1312 864 1249 1332 1447 1191 1092 1027 827 790 880 822 744 674 615 570 517 509 471 305 270 298 233 232 194 227 245 241 208 156 8 8 6 1 0 0 0 0 0 0 0
12 1 4 1 0 0 0 0 0 0 0 0 0 0 0 0 0 0 0 0 0 0 1 0 0 83 582 412 44 453 331 313 534 733 932 1043 1336 1389 1455 1616 1710 1675 1608 1560 1495 1202 1074 1195 1319 1250 1148 987 922 724 759 785 727 702 615 584 586 576 543 447 238 374 383 315 103 0 190 97 251 126 11 6 10 8 4 0 0 0 0 0 0 0
11 3 6 0 0 0 0 0 0 0 0 0 0 0 0 0 0 0 0 0 0 0 0 6 520 719 453 253 498 689 765 525 555 831 895 1130 1433 1504 1576 1605 1629 1677 1591 1519 1476 1210 1154 1081 1272 1155 1000 941 918 849 800 766 795 746 680 658 670 617 531 280 351 477 406 91 45 3 45 6 211 9 10 12 10 8 6 3 0 0 0 0 0 0
9 1 0 0 0 0 0 0 0 0 0 0 0 0 0 0 0 0 0 0 0 0 1 41 325 557 317 234 448 735 1046 1036 1068 1206 1101 1099 1407 1608 1714 1643 1570 1652 1612 1380 1467 1232 1048 839 926 1027 889 1022 1014 958 888 884 890 812 749 713 656 581 377 202 487 371 257 243 224 170 213 236 57 11 14 9 5 5 5 3 0 0 0 0 0 0
11 5 0 2 2 0 0 0 0 0 0 0 0 0 0 0 0 0 0 0 0 0 2 73 187 343 263 329 894 1295 1277 1312 1404 1374 1277 1325 1547 1794 1835 1755 1589 1610 1583 1411 1436 1194 980 862 900 886 990 1084 1032 1018 1015 999 953 847 787 739 640 500 383 560 370 282 248 243 228 212 243 258 231 11 8 5 2 0 1 0 0 0 0 0 0 0
2 1 0 6 21 0 0 0 0 0 0 0 0 0 0 0 0 0 0 0 0 0 0 133 190 255 158 298 948 1310 1324 1306 1462 1494 1378 1401 1505 1728 1830 1708 1598 1520 1464 1393 1419 1180 856 705 740 748 983 1080 1027 962 938 913 887 829 797 712 603 414 662 501 376 318 270 236 210 210 242 234 218 8 128 15 0 0 1 2 0 0 0 0 0 0
2 0 2 0 0 5 0 0 0 0 0 0 0 0 0 0 0 0 2 0 0 0 7 392 323 181 122 234 825 1297 1317 1188 1384 1525 1492 1418 1398 1537 1689 1622 1594 1572 1444 1375 1276 1067 750 559 601 660 866 1012 907 887 855 857 878 789 719 647 441 686 637 545 419 330 276 241 164 101 222 215 200 106 0 0 0 0 0 0 0 0 0 0 0 0
0 3 2 1 0 0 63 91 0 0 0 0 0 0 0 0 0 0 0 4 0 0 0 15 15 4 83 159 881 1303 1419 1332 1306 1612 1633 1505 1374 1338 1559 1508 1490 1527 1470 1252 1201 899 830 592 475 689 684 904 841 833 853 898 797 630 560 413 478 782 681 548 453 385 317 279 253 235 205 4 111 4 0 0 0 0 0 0 0 0 0 0 0 0
4 14 9 4 0 2 37 45 168 79 0 0 0 0 0 0 0 0 0 1 0 0 3 3 0 264 508 726 888 925 1154 1391 1439 1520 1580 1470 1329 1229 1223 1276 1413 1466 1425 1174 961 913 885 473 592 600 744 708 816 700 725 679 589 542 382 434 609 794 671 566 480 392 340 268 236 240 122 6 4 100 230 239 226 222 207 178 45 0 0 0 0 0
17 7 9 1 0 1 9 2 38 36 13 0 0 0 0 0 0 0 0 0 12 8 9 3 9 664 756 748 754 741 729 899 1108 1236 1279 1165 1228 1261 1306 1310 1377 1434 1076 967 1044 948 928 863 775 682 640 589 672 634 708 831 803 655 348 441 734 688 677 624 534 489 378 266 184 5 5 4 0 0 145 103 0 0 0 0 0 0 0 0 0 0
9 7 4 0 0 0 46 22 35 9 0 87 495 246 222 0 0 0 0 0 18 0 0 21 442 718 920 822 697 752 811 839 1158 1517 1608 1545 1359 1362 1235 1250 1247 1311 1239 985 972 1079 1071 975 747 553 505 437 546 862 933 794 739 619 372 541 684 719 749 678 632 620 455 256 4 2 0 0 0 0 0 0 0 0 0 0 0 0 0 0 0 0
2 12 5 0 0 0 2 12 0 0 29 365 493 356 182 57 0 0 0 0 7 0 0 314 487 499 926 961 1052 1132 1305 1650 1608 1440 1782 1732 1693 1664 1658 1403 1127 1218 1141 1022 1044 1011 990 903 692 580 650 753 799 810 734 628 655 606 444 606 662 747 791 745 732 534 272 238 0 2 0 0 0 0 0 0 0 0 0 0 0 0 2 0 0 0
5 1 0 0 0 0 0 2 1 17 54 195 261 350 224 69 2 0 0 0 1 0 0 4 725 632 804 1000 1442 1726 1812 2003 1878 1806 1522 1750 1694 1447 1492 1430 1194 1164 1041 1065 1070 1131 1037 863 754 781 764 772 743 688 551 573 615 591 533 594 667 703 736 691 456 266 304 253 52 0 0 0 0 0 136 127 112 113 157 279 252 119 0 0 0 0
2 0 0 2 0 0 0 0 0 54 11 55 172 604 402 208 300 22 0 0 1 0 0 0 374 578 923 1058 1391 1778 1862 1892 1862 1805 1734 1613 1642 1628 1547 1526 1340 1248 1249 1141 1158 1088 1059 966 876 798 786 806 715 574 514 562 545 599 534 603 649 701 647 534 481 388 235 186 18 69 55 225 276 267 265 299 301 332 322 210 127 6 0 0 0 0
2 0 0 0 0 0 0 0 0 5 0 7 46 473 521 546 576 23 0 0 4 0 0 0 28 666 851 913 1000 1206 1423 1423 1326 1360 1633 1573 1386 1377 1366 1400 1316 1377 1388 1356 1263 1156 1077 1002 933 820 791 711 614 530 611 590 551 282 261 546 600 662 563 548 491 331 213 365 378 363 347 310 266 242 261 301 326 260 135 0 5 0 0 0 0 0
4 0 0 0 0 0 0 0 4 0 60 191 515 338 356 351 315 16 0 0 325 681 254 0 0 566 680 760 798 841 737 766 702 769 1454 1437 1199 1440 1438 1344 1272 1365 1376 1279 1214 1138 1040 934 983 841 728 656 576 733 701 640 627 288 168 312 344 536 563 587 515 426 420 413 392 314 246 0 0 0 168 140 127 0 0 0 0 0 0 0 0 0
9 5 0 0 0 0 0 0 0 0 109 152 324 374 324 368 140 0 0 25 829 970 747 235 0 713 590 515 561 551 106 460 434 564 1366 1361 1256 1500 1591 1573 1494 1464 1411 1328 1183 1036 1109 1096 1008 798 769 705 754 835 828 834 376 530 359 353 567 636 603 557 602 466 454 405 356 308 0 0 0 0 0 0 0 0 0 0 0 0 0 0 0 0
2 1 0 0 0 0 4 6 0 1 224 365 354 336 437 256 113 0 0 500 905 908 656 669 7 558 662 605 586 484 370 0 421 905 1363 1325 1330 1418 1430 1513 1526 1482 1389 1271 1171 1079 1043 948 854 860 901 818 768 758 700 731 720 699 699 657 670 683 640 557 458 425 407 392 356 168 0 0 0 0 0 0 0 0 0 0 0 0 0 0 0 0
0 0 0 0 0 0 0 0 88 306 356 490 358 447 329 134 0 7 445 666 828 786 884 610 430 588 668 690 635 725 971 996 900 1345 1320 1358 1393 1318 1342 1377 1366 1360 1254 1229 1145 1091 1007 907 862 896 974 879 801 768 697 596 650 633 657 684 706 625 517 400 414 412 406 394 254 1 0 0 0 1 0 0 0 0 0 0 0 0 0 0 0 0
0 0 0 0 0 0 0 0 7 258 354 391 356 351 189 162 521 565 657 885 860 705 799 975 975 865 768 776 909 1178 1156 1103 1176 1243 1231 1325 1358 1357 1333 1275 1205 1162 1061 1071 1090 1108 1145 1156 1096 1039 971 824 666 687 766 756 800 724 659 676 484 528 462 461 470 444 374 205 0 1 1 0 0 0 0 0 0 0 0 0 0 0 0 0 0 0
0 0 0 0 0 0 0 0 66 346 252 353 271 285 595 542 629 644 686 874 831 751 814 861 952 1003 1138 1164 1197 1234 1195 1186 1148 1193 1171 1209 1279 1278 1252 1246 1193 1036 956 917 922 953 927 932 899 859 784 696 624 634 716 760 434 486 603 568 402 300 457 517 493 341 89 0 1 1 1 0 0 0 0 0 0 0 0 0 0 0 0 0 0 0
0 150 256 149 116 264 271 346 698 781 710 683 618 614 537 572 524 618 706 762 834 759 714 896 975 1008 1086 1248 1206 1193 1157 1066 1050 1123 1164 1149 1223 1238 1221 1171 1136 1047 976 901 902 845 828 867 888 864 784 734 685 718 789 634 286 393 396 472 506 404 454 459 314 61 1 1 1 2 1 0 0 0 0 0 0 0 0 0 0 0 0 0 0 0
82 248 447 434 592 482 496 577 581 576 591 565 544 558 638 691 742 721 707 855 988 988 663 643 800 788 849 919 1131 1127 1068 1003 1008 1107 1116 1150 1137 1151 1171 1132 1081 1087 1110 1125 1017 935 822 790 871 854 791 691 650 666 692 486 401 432 450 526 587 526 452 295 109 0 1 2 2 1 0 0 0 0 0 0 0 0 0 0 0 0 0 0 0 0
154 78 215 173 71 207 221 268 118 207 373 524 511 583 598 609 664 733 747 783 761 907 935 665 605 628 782 753 683 919 928 937 1082 1139 1139 1165 1102 1055 1032 1011 1034 1033 1018 1042 988 887 875 840 753 724 746 766 797 762 685 353 404 470 518 617 513 352 317 244 0 1 2 2 2 2 0 0 0 0 0 0 0 0 0 0 0 0 0 0 0 0
96 40 75 157 94 144 154 84 117 58 114 341 464 441 468 578 548 630 698 629 653 712 807 788 656 624 493 513 464 762 1081 1170 1151 1162 1178 1188 1173 1069 1017 939 900 849 796 773 769 763 729 670 777 678 620 704 702 248 222 280 131 178 190 273 155 374 294 0 1 1 1 2 2 1 0 0 0 0 0 0 0 0 0 0 0 0 0 0 0 0
269 77 202 148 238 160 142 190 232 236 410 496 523 500 431 452 565 531 531 488 552 531 505 626 652 532 541 380 620 786 1007 1151 1198 1181 1197 1193 1131 1052 958 860 767 664 549 530 582 599 584 544 536 551 553 656 606 445 131 88 120 165 140 164 160 150 58 1 2 1 1 1 1 0 0 0 0 0 0 0 0 0 0 0 0 0 0 0 0 0
240 200 121 79 166 258 234 202 185 304 305 371 457 455 440 388 438 519 519 494 506 455 449 420 462 458 469 394 595 1059 1056 1163 1270 1248 1167 1162 1090 1007 935 864 775 645 478 373 409 419 438 457 500 455 528 596 688 520 151 182 181 131 144 149 123 171 0 1 1 1 1 1 0 0 0 0 0 0 0 0 0 0 0 0 0 0 0 0 0 0
268 256 119 0 114 46 274 387 472 256 319 339 326 330 292 325 374 404 350 396 510 511 510 509 383 376 339 334 274 934 1117 1228 1265 1287 1260 1188 1095 997 918 842 749 678 609 423 354 346 367 347 357 381 417 432 567 616 270 183 212 211 192 191 170 42 0 0 0 0 0 0 0 0 0 0 0 0 0 0 0 0 0 0 0 0 0 0 0 0
Wind_Speed
nan nan nan nan nan nan nan nan nan nan nan nan nan nan nan nan nan nan nan nan nan nan nan nan nan nan 31 34 32 31 42 43 42 41 39 39 36 33 35 35 33 35 35 29 33 31 27 28 29 27 32 36 29 21 22 27 29 30 28 27 25 22 22 22 22 23 24 25 25 25 25 25 22 22 22 25 23 23 22 15 15 19 14 12 9 12
nan nan nan nan nan nan nan nan nan nan nan nan nan nan nan nan nan nan nan nan nan nan nan nan nan nan 31 33 31 30 36 40 37 37 39 38 33 29 32 32 31 31 32 34 33 28 27 29 28 29 30 32 32 27 28 28 29 30 29 29 27 25 25 25 23 22 23 22 23 24 24 24 23 24 25 27 26 27 23 17 14 19 18 13 14 14
nan nan nan nan nan nan nan nan nan nan nan nan nan nan nan nan nan nan nan nan nan nan nan nan nan nan 30 32 30 27 28 33 32 34 36 38 32 29 29 30 32 34 33 31 27 26 26 27 27 29 27 27 30 30 29 29 31 30 27 26 26 26 27 26 24 23 23 23 24 24 23 25 25 24 25 27 29 27 25 18 18 24 20 16 16 15
nan nan nan nan nan nan nan nan nan nan nan nan nan nan nan nan nan nan nan nan nan nan nan nan nan nan 30 31 30 29 31 37 33 35 35 33 32 29 28 29 30 32 33 29 23 25 26 27 24 23 25 25 25 27 28 29 30 27 25 23 25 26 26 25 24 25 25 26 27 28 27 25 25 26 27 27 27 25 22 21 24 22 19 18 16 nan
nan nan nan nan nan nan nan nan nan nan nan nan nan nan nan nan nan nan nan nan nan nan nan nan nan nan 37 35 32 30 38 40 34 34 32 28 30 30 28 26 27 32 33 30 25 26 27 27 22 20 21 21 22 22 25 27 27 25 24 24 25 25 25 23 24 25 26 27 29 29 28 27 28 26 26 26 24 20 19 23 23 20 19 nan nan nan
nan nan nan nan nan nan nan nan nan nan nan nan nan nan nan nan nan nan nan nan nan nan nan nan nan nan 32 35 29 28 37 36 28 31 29 29 29 30 28 27 27 30 29 30 27 29 32 30 25 20 22 21 20 21 22 23 24 23 22 23 23 24 23 23 24 26 27 27 29 29 28 27 27 26 23 23 20 19 23 26 24 21 18 nan nan nan
nan nan nan nan nan nan nan nan nan nan nan nan nan nan nan nan nan nan nan nan nan nan nan nan nan nan 30 32 29 31 36 33 26 27 28 27 27 27 27 25 26 30 32 33 32 33 33 30 23 19 19 22 25 24 23 22 21 20 21 22 22 21 20 21 23 26 27 28 28 29 27 27 28 27 20 16 15 20 24 25 24 19 16 nan nan nan
nan nan nan nan nan nan nan nan nan nan nan nan nan nan nan nan nan nan nan nan nan nan nan nan nan nan 36 31 33 39 37 30 29 26 26 25 25 28 28 28 29 32 35 35 33 33 33 26 19 17 17 21 24 23 22 22 21 20 21 23 23 21 21 22 24 24 25 27 26 28 27 27 27 24 20 17 19 23 24 21 18 17 nan nan nan nan
nan nan nan nan nan nan nan nan nan nan nan nan nan nan nan nan nan nan nan nan nan nan nan nan nan nan nan 37 42 42 36 27 25 24 24 24 26 29 30 31 33 34 38 40 35 34 34 26 18 14 13 17 21 19 20 21 21 22 23 25 24 24 24 25 25 24 22 22 23 25 26 26 22 20 16 15 17 22 20 19 17 16 nan nan 11 nan
nan nan nan nan nan nan nan nan nan nan nan nan nan nan nan nan nan nan nan nan nan nan nan nan nan nan nan 37 37 32 29 23 20 19 20 21 25 30 31 31 32 33 34 37 39 36 31 25 17 12 12 15 17 19 21 21 22 23 24 25 25 24 23 23 23 22 20 20 21 23 24 25 20 18 14 11 16 19 17 16 17 nan nan 14 nan nan
nan nan nan nan nan nan nan nan nan nan nan nan nan nan nan nan nan nan nan nan nan nan nan nan nan nan 29 23 30 30 19 17 21 16 16 19 23 28 29 30 29 30 30 33 36 29 21 19 14 11 13 16 17 20 21 20 21 22 23 24 23 20 19 19 20 19 19 18 19 22 23 23 21 19 16 15 19 20 17 16 18 nan nan nan nan nan
nan nan nan nan nan nan nan nan nan nan nan nan nan nan nan nan nan nan nan nan nan nan nan nan nan nan nan 20 21 17 16 23 27 24 24 23 26 28 27 28 29 29 28 24 27 23 18 16 14 13 14 17 19 20 20 19 20 20 21 21 20 18 19 20 20 19 18 17 18 21 22 21 21 21 18 18 22 22 16 18 20 17 nan nan nan nan
nan nan nan nan nan nan nan nan nan nan nan nan nan nan nan nan nan nan nan nan nan nan nan nan nan nan nan 21 12 10 15 23 25 30 30 29 30 28 25 25 25 24 26 21 24 26 20 17 15 15 16 18 20 20 20 19 19 19 19 19 19 20 20 20 17 17 17 17 18 19 19 19 19 18 17 19 23 22 21 22 nan nan nan nan nan nan
nan nan nan nan nan nan nan nan nan nan nan nan nan nan nan nan nan nan nan nan nan nan nan nan nan nan nan nan 16 18 19 26 27 29 31 30 32 31 26 22 20 18 20 22 23 24 21 18 19 20 20 18 20 22 21 19 19 18 17 18 19 19 18 14 13 13 15 17 17 17 18 17 17 18 19 21 23 21 nan nan nan nan nan nan nan nan
nan nan nan nan nan nan nan nan nan nan nan nan nan nan nan nan nan nan nan nan nan nan nan nan nan nan nan nan 14 16 20 24 30 34 29 28 29 30 26 23 21 19 18 20 19 20 22 22 22 20 20 20 21 24 23 19 16 15 14 15 16 17 13 10 10 12 16 16 17 18 19 18 17 18 19 20 19 nan nan nan nan nan nan nan nan nan
nan nan nan nan nan nan nan nan nan nan nan nan nan nan nan nan nan nan nan nan nan nan nan nan nan nan nan nan nan 15 19 24 32 35 31 25 25 25 22 20 19 18 17 16 18 21 23 22 18 14 15 19 23 25 24 20 15 13 13 14 14 14 11 9 10 13 15 15 15 18 19 19 19 19 19 19 20 23 nan nan nan nan nan nan nan nan
nan nan nan nan nan nan nan nan nan nan nan nan nan nan nan nan nan nan nan nan nan nan nan nan nan nan nan nan 29 23 22 23 32 35 30 26 23 22 20 17 16 16 13 13 17 19 22 21 18 16 16 19 23 23 23 20 17 15 15 15 14 11 10 10 12 14 15 15 16 17 19 20 21 20 20 20 23 nan nan nan nan nan nan nan nan nan
nan nan nan nan nan nan nan nan nan nan nan nan nan nan nan nan nan nan nan nan nan nan nan nan nan nan nan nan 30 29 29 26 34 37 32 26 22 19 19 16 14 15 14 14 18 20 20 20 21 21 20 21 23 24 24 21 17 14 13 14 13 11 12 12 14 16 16 17 18 19 nan nan nan nan nan 21 23 nan nan nan nan nan nan nan nan nan
nan nan nan nan nan nan nan nan nan nan nan nan nan nan nan nan nan nan nan nan nan nan nan nan nan nan nan nan 28 27 31 30 35 38 33 24 19 19 20 19 15 14 15 16 18 18 18 19 21 21 21 24 26 25 23 20 17 13 12 12 12 12 12 14 15 17 18 19 19 19 nan nan nan nan nan 20 22 nan nan nan nan nan nan nan nan nan
nan nan nan nan nan nan nan nan nan nan nan nan nan nan nan nan nan nan nan nan nan nan nan nan nan nan nan nan nan 25 31 36 36 37 33 29 26 24 23 20 15 13 13 15 17 17 19 21 22 22 23 27 28 26 22 21 18 15 13 13 13 13 15 17 19 19 20 20 20 19 nan nan nan 19 19 21 22 nan nan nan nan nan nan nan nan nan
nan nan nan nan nan nan nan nan nan nan nan nan nan nan nan nan nan nan nan nan nan nan nan nan nan nan nan nan nan 27 33 37 39 37 36 35 32 26 22 19 14 13 14 17 19 20 24 26 25 23 25 28 29 27 24 23 22 19 17 17 16 18 20 21 19 20 20 21 20 20 nan nan 20 20 22 24 22 nan nan nan nan nan nan nan nan nan
nan nan nan nan nan nan nan nan nan nan nan nan nan nan nan nan nan nan nan nan nan nan nan nan nan nan nan nan nan 29 32 37 38 39 36 36 31 25 22 20 20 18 17 20 21 24 27 24 23 25 28 30 30 28 26 25 25 24 22 20 20 20 19 18 17 18 19 20 20 nan nan 21 20 21 22 23 nan nan nan nan nan nan nan nan nan nan
35 nan nan nan nan nan nan nan nan nan nan nan nan nan nan nan nan nan nan nan nan nan nan nan nan nan 19 21 nan 24 28 37 37 38 35 32 30 27 27 27 27 26 25 24 25 26 26 26 26 27 29 29 29 28 27 25 25 25 23 21 19 19 16 14 15 16 17 19 nan nan 20 20 20 21 22 nan nan nan nan nan nan nan nan nan nan nan
41 nan nan nan nan nan nan nan nan nan nan nan nan nan nan nan nan nan nan nan nan nan nan nan nan nan 21 23 nan nan 29 36 40 41 36 28 27 31 34 33 31 30 29 29 28 28 28 27 27 24 26 27 27 27 26 25 25 24 21 19 17 16 15 15 15 16 17 18 19 20 20 20 19 21 20 nan nan nan nan nan nan nan nan nan nan nan
nan nan nan nan nan nan nan nan nan nan nan nan nan nan nan nan nan nan nan nan nan nan nan nan nan nan 24 26 nan 41 42 40 39 37 34 25 22 26 29 28 28 30 32 31 30 31 30 23 21 24 26 28 28 27 25 24 23 20 17 15 14 13 14 15 15 16 16 18 19 nan 19 nan 19 20 nan nan nan nan nan nan nan nan nan nan nan nan
nan nan nan nan nan nan nan nan nan nan nan nan nan nan nan nan nan nan nan nan nan nan nan nan 12 17 25 31 35 37 38 34 33 32 27 26 24 24 24 24 26 28 30 30 29 29 28 25 23 25 26 28 28 27 25 22 19 17 15 12 10 12 13 14 14 15 16 nan nan nan nan nan 19 nan nan nan nan nan nan nan nan nan nan nan nan nan
nan nan nan nan nan nan nan nan nan nan nan nan nan nan nan nan nan nan nan nan nan nan nan nan 11 16 23 28 31 30 35 35 35 35 32 31 30 25 23 23 25 27 28 29 28 26 29 26 24 27 29 29 27 25 24 22 18 16 15 12 11 11 13 13 15 16 16 18 18 18 18 18 nan nan nan nan nan nan nan nan nan nan nan nan nan nan
nan nan nan nan nan nan nan nan nan nan nan nan nan nan nan nan nan nan nan nan nan nan nan nan 21 24 17 23 28 30 31 35 38 39 37 34 32 30 26 26 28 30 29 28 28 28 26 25 27 29 30 29 27 25 24 21 18 17 16 14 11 11 12 12 15 16 18 18 19 19 20 20 20 nan nan nan nan nan nan nan nan nan nan nan nan nan
nan nan nan nan nan nan nan nan nan nan nan nan nan nan nan nan nan nan nan nan nan nan nan 24 27 26 19 21 26 26 27 28 31 31 31 31 32 31 30 29 30 31 31 32 30 29 26 27 30 29 28 26 25 23 22 19 19 21 18 15 13 12 13 14 15 16 17 18 19 20 21 23 22 nan 22 nan nan nan nan nan nan nan nan nan nan nan
nan nan nan nan nan nan nan nan nan nan nan nan nan nan nan nan nan nan nan nan nan nan nan 25 28 25 23 24 26 25 26 29 28 28 28 29 28 29 30 29 27 26 27 30 31 29 29 31 33 29 25 23 21 20 18 18 21 22 20 18 16 14 14 16 15 16 17 19 21 22 24 24 24 24 nan nan nan nan nan nan nan nan nan nan nan nan
nan nan nan nan nan nan nan nan nan nan nan nan nan nan nan nan nan nan nan nan nan nan nan nan nan nan nan 32 33 32 32 33 32 28 26 26 27 28 29 29 29 27 25 26 29 32 35 34 33 27 25 23 19 16 17 19 22 24 24 22 19 16 17 18 16 16 18 20 22 25 26 nan 25 nan nan nan nan nan nan nan nan nan nan nan nan nan
nan nan nan nan nan nan nan nan 30 nan nan nan nan nan nan nan nan nan nan nan nan nan nan nan nan 32 33 37 35 33 34 35 34 31 29 27 26 28 28 30 31 28 27 26 28 31 32 29 27 24 25 22 16 13 15 19 21 22 22 21 18 17 19 18 16 18 19 21 23 26 28 nan nan 25 23 24 26 27 29 31 nan nan nan nan nan nan
nan nan nan nan nan nan nan nan nan nan nan nan nan nan nan nan nan nan nan nan nan nan nan nan nan 27 31 31 31 26 28 30 34 33 31 29 27 27 27 28 27 25 26 28 28 29 27 23 21 20 22 21 16 12 14 17 18 18 20 19 18 19 19 17 18 20 22 23 24 nan nan nan nan nan 25 26 nan nan nan nan nan nan nan nan nan nan
nan nan nan nan nan nan nan nan nan nan nan nan 29 36 38 nan nan nan nan nan nan nan nan nan 29 30 35 35 33 23 23 23 26 24 29 29 25 24 23 23 22 23 23 25 27 28 24 20 19 19 22 22 19 16 15 17 19 20 20 21 20 20 18 19 20 21 23 25 nan nan nan nan nan nan nan nan nan nan nan nan nan nan nan nan nan nan
nan nan nan nan nan nan nan nan nan nan nan 25 29 34 40 nan nan nan nan nan nan nan nan 41 36 37 35 37 36 30 28 29 27 27 25 27 27 26 24 19 19 21 19 21 21 22 21 21 22 23 24 24 21 18 20 22 22 22 22 22 23 21 21 20 21 21 23 25 nan nan nan nan nan nan nan nan nan nan nan nan nan nan nan nan nan nan
nan nan nan nan nan nan nan nan nan nan nan 29 28 32 36 nan nan nan nan nan nan nan nan nan 38 40 43 43 39 34 33 30 29 27 28 26 28 29 26 20 17 16 16 18 20 21 21 21 23 24 24 24 24 22 21 22 22 24 24 25 25 23 22 22 21 22 22 23 nan nan nan nan nan nan 28 29 30 32 34 34 36 37 nan nan nan nan
nan nan nan nan nan nan nan nan nan nan nan nan 29 29 30 32 36 nan nan nan nan nan nan nan 45 48 45 42 39 38 36 35 31 26 25 27 27 27 27 22 20 16 17 19 21 23 23 23 25 27 27 26 25 24 22 22 25 28 28 27 25 24 23 21 21 22 22 23 nan nan nan 23 26 28 28 29 31 33 34 35 36 nan nan nan nan nan
nan nan nan nan nan nan nan nan nan nan nan nan nan 22 23 25 31 nan nan nan nan nan nan nan nan 42 42 38 38 38 39 37 29 21 21 24 27 28 24 23 21 22 22 23 23 25 24 24 25 26 27 27 25 24 24 26 31 33 30 26 24 23 22 20 21 23 24 25 25 26 28 29 29 29 29 31 33 34 35 nan nan nan nan nan nan nan
nan nan nan nan nan nan nan nan nan nan nan 21 24 23 21 26 31 nan nan nan 37 43 37 nan nan 36 40 38 37 39 38 30 22 20 19 24 27 28 28 25 26 26 26 28 27 26 25 25 27 28 28 29 27 25 26 28 31 32 28 25 24 22 20 20 22 24 26 26 28 32 33 nan nan nan 32 33 35 nan nan nan nan nan nan nan nan nan
nan nan nan nan nan nan nan nan nan nan 27 26 25 23 23 25 29 nan nan nan 34 37 37 35 nan 34 35 37 37 37 35 26 22 20 22 25 28 27 28 28 29 29 28 30 30 29 30 30 30 29 28 27 27 27 27 27 27 28 27 25 23 22 21 22 24 26 27 29 32 34 nan nan nan nan nan nan nan nan nan nan nan nan nan nan nan nan
nan nan nan nan nan nan nan nan nan nan 28 28 26 24 26 25 30 nan nan 29 29 33 32 30 nan 29 34 36 37 38 32 nan 25 27 31 34 35 30 28 30 31 32 32 31 31 31 31 29 30 29 29 28 29 27 26 25 26 26 25 24 23 22 22 25 26 27 30 33 35 36 nan nan nan nan nan nan nan nan nan nan nan nan nan nan nan nan
nan nan nan nan nan nan nan nan nan 28 26 27 27 28 28 29 nan nan 27 26 30 33 32 32 33 31 34 39 39 37 36 37 38 35 35 35 34 31 31 31 32 32 33 33 33 31 31 31 31 31 30 30 29 28 26 26 27 27 26 25 24 24 26 28 28 30 34 36 37 nan nan nan nan nan nan nan nan nan nan nan nan nan nan nan nan nan
nan nan nan nan nan nan nan nan nan 32 27 27 27 29 28 28 26 25 26 33 33 32 34 33 35 34 39 37 36 38 40 40 39 37 35 35 35 33 31 30 31 32 33 34 33 33 33 32 31 30 30 29 30 29 28 28 28 27 27 26 26 28 30 30 32 35 36 37 nan nan nan nan nan nan nan nan nan nan nan nan nan nan nan nan nan nan
nan nan nan nan nan nan nan nan nan 29 28 28 26 22 23 23 20 21 23 29 30 30 31 33 34 35 37 37 34 34 35 36 37 38 36 34 34 34 32 30 31 32 32 33 34 33 33 33 32 31 30 31 30 30 30 30 30 29 29 28 29 30 31 32 35 37 nan nan nan nan nan nan nan nan nan nan nan nan nan nan nan nan nan nan nan nan
nan 28 30 30 33 31 29 29 29 31 35 34 29 24 24 27 26 26 26 25 27 28 28 32 34 37 39 39 35 31 29 28 32 35 34 31 32 32 32 31 32 32 32 33 33 34 33 34 35 34 33 32 32 30 30 31 31 30 30 29 33 34 35 36 38 nan nan nan nan nan nan nan nan nan nan nan nan nan nan nan nan nan nan nan nan nan
nan 24 25 33 34 36 37 35 30 29 37 38 34 30 28 28 29 29 27 28 28 29 28 30 32 35 35 35 36 34 31 28 31 33 32 29 29 30 32 33 33 33 33 34 34 34 34 34 35 35 35 34 32 32 32 31 33 34 33 34 37 37 39 40 41 nan nan nan nan nan nan nan nan nan nan nan nan nan nan nan nan nan nan nan nan nan
26 nan 29 29 nan 32 31 34 31 22 28 39 39 37 34 30 28 28 30 28 27 28 29 29 28 28 28 32 35 36 35 33 32 31 29 26 27 29 31 32 32 32 32 32 33 35 35 34 34 34 34 34 33 34 35 36 37 38 37 38 39 40 41 41 nan nan nan nan nan nan nan nan nan nan nan nan nan nan nan nan nan nan nan nan nan nan
nan nan nan 28 nan 30 28 nan 27 nan 17 27 36 38 35 31 28 27 27 27 27 27 28 28 29 30 30 32 33 36 34 33 33 30 28 26 26 28 30 32 33 33 33 34 33 34 34 34 34 34 34 33 35 38 39 39 38 36 34 36 40 41 41 nan nan nan nan nan nan nan nan nan nan nan nan nan nan nan nan nan nan nan nan nan nan nan
19 nan 23 23 28 30 30 31 30 29 27 26 28 34 35 33 29 27 27 27 28 29 29 30 31 29 31 32 35 35 33 31 32 30 29 27 28 29 30 31 32 34 34 34 34 34 34 34 34 34 35 35 35 36 36 nan 36 36 34 35 39 40 nan nan nan nan nan nan nan nan nan nan nan nan nan nan nan nan nan nan nan nan nan nan nan nan
22 24 23 nan 29 27 23 22 25 28 25 24 26 27 32 33 32 29 26 26 26 27 28 28 28 31 32 31 33 35 34 31 30 30 29 28 29 30 30 30 31 32 33 34 34 34 34 34 35 35 36 35 34 36 37 38 37 35 34 36 38 41 nan nan nan nan nan nan nan nan nan nan nan nan nan nan nan nan nan nan nan nan nan nan nan nan
22 21 22 nan 20 nan 18 19 20 23 25 25 26 28 31 33 31 31 30 28 27 25 26 28 27 28 29 29 30 34 32 32 29 28 29 28 29 30 31 32 32 32 33 34 35 33 34 34 34 36 37 36 37 38 39 39 37 35 35 37 37 nan nan nan nan nan nan nan nan nan nan nan nan nan nan nan nan nan nan nan nan nan nan nan nan nan
Wind_Direction
nan nan nan nan nan nan nan nan nan nan nan nan nan nan nan nan nan nan nan nan nan nan nan nan nan nan 257 253 248 250 257 257 260 262 265 266 267 273 276 274 277 278 279 272 257 254 257 255 255 256 258 258 261 265 260 268 271 272 277 283 282 282 281 280 277 274 274 273 270 269 270 273 275 278 279 276 274 273 274 280 275 263 257 280 301 267
nan nan nan nan nan nan nan nan nan nan nan nan nan nan nan nan nan nan nan nan nan nan nan nan nan nan 271 256 253 250 259 262 264 268 270 269 269 270 278 278 269 257 256 261 256 255 257 258 260 256 254 264 275 276 269 268 270 273 277 281 282 280 281 279 277 276 273 271 276 277 277 278 279 282 282 282 281 280 279 280 275 265 275 290 263 254
nan nan nan nan nan nan nan nan nan nan nan nan nan nan nan nan nan nan nan nan nan nan nan nan nan nan 285 273 261 261 267 265 269 276 274 275 275 273 274 278 273 267 264 259 254 255 254 261 267 268 269 274 277 279 273 268 271 276 279 280 279 279 280 279 279 276 272 269 272 273 279 282 279 278 282 286 286 286 284 277 262 260 269 265 255 258
nan nan nan nan nan nan nan nan nan nan nan nan nan nan nan nan nan nan nan nan nan nan nan nan nan nan 283 278 266 247 244 252 248 258 264 271 280 280 280 280 279 276 271 262 253 256 255 253 250 261 276 273 272 273 269 268 271 272 278 280 278 277 276 278 277 272 268 271 271 272 276 277 281 288 290 289 286 278 275 262 253 260 265 253 252 nan
nan nan nan nan nan nan nan nan nan nan nan nan nan nan nan nan nan nan nan nan nan nan nan nan nan nan 269 265 257 250 248 254 252 257 259 255 261 264 261 263 274 280 274 262 252 250 252 250 251 254 250 262 275 273 271 270 272 273 281 279 277 273 272 273 275 275 276 275 273 274 273 276 280 281 286 284 277 280 267 253 258 264 259 nan nan nan
nan nan nan nan nan nan nan nan nan nan nan nan nan nan nan nan nan nan nan nan nan nan nan nan nan nan 271 281 277 261 254 253 254 265 265 269 270 271 275 274 265 261 261 264 256 248 245 240 242 242 247 247 254 266 267 267 266 269 275 276 271 268 269 273 276 279 277 276 279 280 282 282 285 288 281 278 281 272 259 263 272 262 253 nan nan nan
nan nan nan nan nan nan nan nan nan nan nan nan nan nan nan nan nan nan nan nan nan nan nan nan nan nan 257 273 273 269 264 265 257 268 269 270 271 271 272 270 268 266 261 250 244 243 244 244 244 250 252 249 251 255 261 263 266 268 271 271 270 271 274 276 277 276 272 270 271 277 281 283 284 285 276 271 262 260 262 268 268 262 258 nan nan nan
nan nan nan nan nan nan nan nan nan nan nan nan nan nan nan nan nan nan nan nan nan nan nan nan nan nan 253 252 266 271 269 273 270 268 273 274 278 272 268 269 267 267 263 259 251 244 241 245 248 256 254 249 250 255 261 264 269 272 269 268 268 268 273 275 275 271 271 273 272 274 275 274 277 281 286 282 271 264 267 270 265 261 nan nan nan nan
nan nan nan nan nan nan nan nan nan nan nan nan nan nan nan nan nan nan nan nan nan nan nan nan nan nan nan 258 261 265 262 264 270 274 280 285 284 272 266 268 274 271 268 268 262 251 242 247 247 252 262 254 257 256 261 261 263 266 265 263 263 269 273 275 273 274 273 272 275 274 272 269 270 278 283 282 268 263 269 272 269 271 nan nan 273 nan
nan nan nan nan nan nan nan nan nan nan nan nan nan nan nan nan nan nan nan nan nan nan nan nan nan nan nan 263 261 254 256 264 274 285 291 290 286 274 268 274 281 280 274 266 263 253 243 243 242 246 256 266 257 252 255 252 256 261 261 263 267 272 276 275 274 275 274 273 275 272 270 275 273 270 277 273 260 268 282 282 276 nan nan 283 nan nan
nan nan nan nan nan nan nan nan nan nan nan nan nan nan nan nan nan nan nan nan nan nan nan nan nan nan 258 258 263 257 246 282 277 272 274 277 280 278 275 280 282 288 283 262 253 249 243 247 259 264 271 270 258 257 261 259 259 262 262 265 268 270 271 273 275 277 278 274 273 271 269 273 279 281 280 259 258 279 288 280 275 nan nan nan nan nan
nan nan nan nan nan nan nan nan nan nan nan nan nan nan nan nan nan nan nan nan nan nan nan nan nan nan nan 240 232 250 270 284 296 299 297 298 298 291 287 282 283 294 294 272 254 252 251 249 262 274 272 267 260 260 265 261 259 262 262 263 264 264 272 274 272 271 271 270 268 265 268 273 278 280 269 255 270 288 283 269 277 281 nan nan nan nan
nan nan nan nan nan nan nan nan nan nan nan nan nan nan nan nan nan nan nan nan nan nan nan nan nan nan nan 253 279 326 281 290 293 289 296 301 295 291 293 292 291 297 302 286 265 262 259 258 271 277 272 264 265 264 266 263 259 260 260 254 256 264 275 278 272 269 267 267 267 265 269 273 272 267 262 261 271 276 269 268 nan nan nan nan nan nan
nan nan nan nan nan nan nan nan nan nan nan nan nan nan nan nan nan nan nan nan nan nan nan nan nan nan nan nan 308 324 316 314 306 295 293 299 295 293 293 295 294 294 294 285 277 269 268 274 279 277 270 265 269 271 270 267 260 259 254 246 255 266 270 274 277 280 271 262 261 263 267 265 259 255 257 265 272 270 nan nan nan nan nan nan nan nan
nan nan nan nan nan nan nan nan nan nan nan nan nan nan nan nan nan nan nan nan nan nan nan nan nan nan nan nan 295 315 311 307 297 285 282 287 288 285 283 288 293 289 273 281 276 276 280 287 287 280 274 267 269 276 275 269 260 257 253 250 258 264 264 274 286 281 273 261 255 256 256 254 256 262 264 264 266 nan nan nan nan nan nan nan nan nan
nan nan nan nan nan nan nan nan nan nan nan nan nan nan nan nan nan nan nan nan nan nan nan nan nan nan nan nan nan 286 274 274 276 276 272 274 281 280 273 283 292 285 283 283 279 281 279 277 273 274 278 272 269 274 272 273 265 259 255 255 253 258 259 263 273 274 268 255 247 248 251 257 266 270 268 263 260 259 nan nan nan nan nan nan nan nan
nan nan nan nan nan nan nan nan nan nan nan nan nan nan nan nan nan nan nan nan nan nan nan nan nan nan nan nan 218 269 274 268 267 277 277 278 286 291 287 284 286 293 303 296 284 281 275 271 275 280 285 278 272 271 272 269 262 259 257 257 256 254 250 260 267 266 259 251 246 245 254 266 271 269 265 263 260 nan nan nan nan nan nan nan nan nan
nan nan nan nan nan nan nan nan nan nan nan nan nan nan nan nan nan nan nan nan nan nan nan nan nan nan nan nan 212 259 263 267 271 279 284 283 286 298 297 292 295 300 305 293 277 275 276 277 283 280 279 278 274 273 269 261 256 257 259 263 262 258 263 264 268 264 258 252 247 254 nan nan nan nan nan 260 260 nan nan nan nan nan nan nan nan nan
nan nan nan nan nan nan nan nan nan nan nan nan nan nan nan nan nan nan nan nan nan nan nan nan nan nan nan nan 232 263 269 272 266 272 277 281 289 298 296 291 295 283 279 281 276 280 281 277 276 274 276 274 270 269 265 253 252 257 253 253 256 266 268 270 267 263 257 254 256 262 nan nan nan nan nan 256 256 nan nan nan nan nan nan nan nan nan
nan nan nan nan nan nan nan nan nan nan nan nan nan nan nan nan nan nan nan nan nan nan nan nan nan nan nan nan nan 236 262 275 277 282 288 291 294 296 292 288 281 277 277 279 280 286 284 279 275 268 266 266 266 266 259 251 248 257 256 260 263 266 270 271 268 263 260 259 262 266 nan nan nan 258 255 256 259 nan nan nan nan nan nan nan nan nan
nan nan nan nan nan nan nan nan nan nan nan nan nan nan nan nan nan nan nan nan nan nan nan nan nan nan nan nan nan 249 266 276 283 287 287 288 290 293 294 289 284 284 282 282 282 276 276 276 268 260 256 256 256 257 254 250 252 252 254 266 272 274 272 269 265 260 258 260 261 264 nan nan 257 255 256 257 258 nan nan nan nan nan nan nan nan nan
nan nan nan nan nan nan nan nan nan nan nan nan nan nan nan nan nan nan nan nan nan nan nan nan nan nan nan nan nan 263 268 276 282 285 287 290 288 285 282 281 279 281 283 285 283 272 262 264 272 264 255 252 255 258 259 254 253 253 257 265 269 268 267 266 261 259 259 259 263 nan nan 261 260 260 260 262 nan nan nan nan nan nan nan nan nan nan
185 nan nan nan nan nan nan nan nan nan nan nan nan nan nan nan nan nan nan nan nan nan nan nan nan nan 212 203 nan 250 268 280 281 282 285 290 288 279 276 274 271 283 285 282 279 276 274 275 262 258 260 260 260 261 261 256 255 257 260 265 267 269 267 265 267 263 262 265 nan nan 266 264 263 263 263 nan nan nan nan nan nan nan nan nan nan nan
187 nan nan nan nan nan nan nan nan nan nan nan nan nan nan nan nan nan nan nan nan nan nan nan nan nan 183 192 nan nan 253 265 271 276 281 284 276 271 268 269 275 277 274 271 271 272 269 266 270 270 272 265 260 260 261 254 254 257 261 264 265 270 275 274 272 269 266 268 269 269 268 266 265 264 265 nan nan nan nan nan nan nan nan nan nan nan
nan nan nan nan nan nan nan nan nan nan nan nan nan nan nan nan nan nan nan nan nan nan nan nan nan nan 190 194 nan 224 234 250 263 268 279 277 273 276 274 274 276 276 274 276 276 277 278 277 276 275 273 266 257 256 257 255 254 255 255 256 263 272 277 274 270 268 268 270 271 nan 269 nan 267 271 nan nan nan nan nan nan nan nan nan nan nan nan
nan nan nan nan nan nan nan nan nan nan nan nan nan nan nan nan nan nan nan nan nan nan nan nan 196 184 189 206 224 230 239 253 267 265 268 279 282 279 276 281 283 279 278 280 279 279 284 280 272 270 269 262 256 255 255 253 251 248 245 252 262 273 276 275 271 270 270 nan nan nan nan nan 270 nan nan nan nan nan nan nan nan nan nan nan nan nan
nan nan nan nan nan nan nan nan nan nan nan nan nan nan nan nan nan nan nan nan nan nan nan nan 211 201 205 208 219 230 245 250 246 247 254 253 253 261 271 276 278 277 277 282 283 278 271 271 277 272 263 258 256 254 249 248 245 236 236 246 254 265 277 280 279 277 275 275 276 276 276 273 nan nan nan nan nan nan nan nan nan nan nan nan nan nan
nan nan nan nan nan nan nan nan nan nan nan nan nan nan nan nan nan nan nan nan nan nan nan nan 212 219 203 223 236 236 238 247 251 253 257 264 270 277 276 270 269 272 272 271 272 273 277 273 263 263 262 257 248 241 236 234 230 227 231 245 253 265 275 277 278 279 276 277 279 279 277 273 271 nan nan nan nan nan nan nan nan nan nan nan nan nan
nan nan nan nan nan nan nan nan nan nan nan nan nan nan nan nan nan nan nan nan nan nan nan 198 221 221 208 229 245 249 254 259 263 264 267 274 275 276 276 275 277 280 278 275 276 274 272 264 258 259 261 254 247 240 232 225 223 222 229 243 253 261 272 274 277 277 279 280 281 280 277 273 273 nan 280 nan nan nan nan nan nan nan nan nan nan nan
nan nan nan nan nan nan nan nan nan nan nan nan nan nan nan nan nan nan nan nan nan nan nan 218 217 217 216 228 249 252 255 258 251 250 252 262 272 276 275 276 282 285 282 277 277 274 270 265 263 260 257 247 240 238 232 223 225 229 240 250 252 258 267 272 275 281 283 286 284 282 282 281 280 282 nan nan nan nan nan nan nan nan nan nan nan nan
nan nan nan nan nan nan nan nan nan nan nan nan nan nan nan nan nan nan nan nan nan nan nan nan nan nan nan 226 232 233 242 246 252 257 262 260 267 278 279 277 274 273 268 265 265 260 261 261 268 270 257 235 223 225 227 226 229 235 242 248 252 259 268 272 282 284 287 289 288 287 288 nan 285 nan nan nan nan nan nan nan nan nan nan nan nan nan
nan nan nan nan nan nan nan nan 195 nan nan nan nan nan nan nan nan nan nan nan nan nan nan nan nan 219 224 238 232 234 243 255 259 259 260 263 270 276 277 269 271 273 270 266 259 258 263 271 275 277 274 256 227 223 223 226 233 240 246 249 253 259 266 273 280 283 285 286 287 291 293 nan nan 286 284 286 290 287 288 289 nan nan nan nan nan nan
nan nan nan nan nan nan nan nan nan nan nan nan nan nan nan nan nan nan nan nan nan nan nan nan nan 232 242 248 246 227 235 244 255 259 258 266 277 286 287 279 279 285 284 279 269 262 262 266 266 268 267 255 242 232 230 238 244 247 249 253 255 260 268 276 283 285 286 287 287 nan nan nan nan nan 285 287 nan nan nan nan nan nan nan nan nan nan
nan nan nan nan nan nan nan nan nan nan nan nan 193 192 200 nan nan nan nan nan nan nan nan nan 226 233 241 246 255 246 245 257 265 263 274 278 278 280 286 291 289 284 276 272 273 269 263 258 264 265 265 261 250 243 242 247 252 249 249 254 259 267 272 278 284 289 292 294 nan nan nan nan nan nan nan nan nan nan nan nan nan nan nan nan nan nan
nan nan nan nan nan nan nan nan nan nan nan 201 188 193 204 nan nan nan nan nan nan nan nan 219 231 238 244 252 257 257 251 255 262 274 275 281 284 288 298 296 282 274 268 265 265 266 268 266 268 262 261 261 254 241 241 243 249 254 254 258 264 270 277 281 289 296 301 304 nan nan nan nan nan nan nan nan nan nan nan nan nan nan nan nan nan nan
nan nan nan nan nan nan nan nan nan nan nan 201 198 204 205 nan nan nan nan nan nan nan nan nan 232 240 248 254 261 262 263 258 256 261 279 279 276 281 288 293 289 272 263 254 250 251 257 260 263 261 256 248 248 247 251 257 260 265 265 264 268 273 278 284 292 299 303 306 nan nan nan nan nan nan 286 287 287 289 292 292 291 291 nan nan nan nan
nan nan nan nan nan nan nan nan nan nan nan nan 209 209 209 208 209 nan nan nan nan nan nan nan 239 241 247 258 263 261 257 252 248 247 259 274 273 276 285 291 291 281 256 254 250 250 250 251 255 255 251 250 254 259 260 265 269 269 268 268 269 272 277 285 295 301 304 307 nan nan nan 296 292 288 287 288 290 292 294 294 292 nan nan nan nan nan
nan nan nan nan nan nan nan nan nan nan nan nan nan 209 208 210 214 nan nan nan nan nan nan nan nan 250 251 251 255 255 254 253 255 249 249 261 269 274 278 285 280 279 264 259 253 252 254 255 254 256 259 258 257 261 264 265 263 260 262 269 273 275 279 287 295 298 300 305 305 300 298 295 291 289 289 291 292 293 294 nan nan nan nan nan nan nan
nan nan nan nan nan nan nan nan nan nan nan 203 204 206 207 208 208 nan nan nan 215 217 222 nan nan 255 260 258 255 252 251 255 255 247 248 258 260 268 269 270 277 279 271 264 259 257 256 253 256 254 254 259 261 259 262 267 273 276 278 275 275 276 283 288 291 293 297 297 292 293 293 nan nan nan 291 291 293 nan nan nan nan nan nan nan nan nan
nan nan nan nan nan nan nan nan nan nan 200 199 208 212 211 216 211 nan nan nan 212 213 221 224 nan 256 255 261 258 256 260 254 249 244 253 255 258 263 268 267 269 274 272 268 264 262 256 252 250 255 260 262 263 265 266 267 270 275 278 279 277 280 283 283 284 285 287 285 286 287 nan nan nan nan nan nan nan nan nan nan nan nan nan nan nan nan
nan nan nan nan nan nan nan nan nan nan 194 202 209 209 208 214 220 nan nan 210 211 218 217 223 nan 257 249 247 248 249 240 nan 251 251 251 253 255 254 259 263 266 270 271 266 262 259 258 261 263 262 262 260 263 263 266 268 270 273 275 276 276 278 275 275 277 280 282 282 283 284 nan nan nan nan nan nan nan nan nan nan nan nan nan nan nan nan
nan nan nan nan nan nan nan nan nan 199 198 203 200 209 206 213 nan nan 210 208 215 218 215 227 235 225 236 243 241 242 242 241 248 250 252 255 256 258 261 261 260 260 263 263 263 260 258 256 253 256 258 261 266 265 266 267 271 273 273 272 273 270 268 271 271 275 280 282 281 nan nan nan nan nan nan nan nan nan nan nan nan nan nan nan nan nan
nan nan nan nan nan nan nan nan nan 208 200 208 214 210 213 222 215 216 211 211 218 223 227 227 240 236 237 234 241 247 249 251 253 251 250 253 257 258 260 261 262 261 260 259 259 260 260 255 255 256 257 258 262 262 262 268 271 270 270 271 271 266 264 267 273 278 280 279 nan nan nan nan nan nan nan nan nan nan nan nan nan nan nan nan nan nan
nan nan nan nan nan nan nan nan nan 210 208 212 225 225 219 227 226 223 224 223 217 223 226 232 230 235 240 243 242 244 251 257 255 254 250 250 252 254 254 255 255 256 258 261 262 261 260 259 258 258 257 257 259 259 261 269 268 268 268 269 266 263 265 270 274 276 nan nan nan nan nan nan nan nan nan nan nan nan nan nan nan nan nan nan nan nan
nan 205 199 207 200 216 218 220 215 211 219 221 230 231 226 221 222 228 230 228 227 221 224 229 228 230 236 242 242 245 245 248 258 259 257 255 257 258 257 256 256 257 257 258 261 262 258 260 262 260 260 259 261 259 259 261 266 269 270 268 264 268 271 272 271 nan nan nan nan nan nan nan nan nan nan nan nan nan nan nan nan nan nan nan nan nan
nan 210 208 216 214 223 225 225 215 211 222 222 223 226 228 223 221 224 224 227 223 226 224 231 229 231 232 239 245 240 241 245 251 252 254 254 254 252 253 252 251 254 254 253 253 256 258 258 258 260 261 260 260 259 260 262 266 270 266 262 265 267 268 268 270 nan nan nan nan nan nan nan nan nan nan nan nan nan nan nan nan nan nan nan nan nan
193 nan 200 216 nan 221 219 217 223 205 206 226 227 225 226 224 224 223 224 226 228 229 230 230 234 235 234 239 241 244 244 245 249 254 256 253 252 253 254 255 253 253 255 255 255 254 256 260 260 260 259 257 255 257 258 259 255 253 253 260 262 263 265 266 nan nan nan nan nan nan nan nan nan nan nan nan nan nan nan nan nan nan nan nan nan nan
nan nan nan 209 nan 222 220 nan 221 nan 213 218 225 227 226 226 225 225 226 228 232 233 233 233 234 230 233 239 242 247 249 249 251 251 249 248 250 252 253 254 254 249 250 255 254 257 258 259 260 261 259 256 251 248 250 253 257 256 253 255 259 262 264 nan nan nan nan nan nan nan nan nan nan nan nan nan nan nan nan nan nan nan nan nan nan nan
196 nan 207 206 223 224 221 217 222 230 226 223 224 224 223 224 227 225 223 224 226 230 230 230 231 232 231 236 239 249 248 248 252 253 252 247 247 248 251 255 258 259 256 254 255 257 258 258 259 259 259 256 256 261 263 nan 260 263 263 258 260 263 nan nan nan nan nan nan nan nan nan nan nan nan nan nan nan nan nan nan nan nan nan nan nan nan
206 205 208 nan 228 223 224 220 217 228 228 228 226 225 224 221 227 228 227 226 227 228 228 234 233 234 235 238 242 243 248 247 250 254 252 250 250 250 251 253 255 259 261 261 258 262 261 260 262 261 260 257 257 258 260 261 260 260 260 257 261 265 nan nan nan nan nan nan nan nan nan nan nan nan nan nan nan nan nan nan nan nan nan nan nan nan
212 208 218 nan 239 nan 225 230 229 235 236 234 232 226 224 220 229 231 230 232 228 231 235 236 234 237 237 235 242 251 248 251 246 245 246 246 249 253 255 256 255 254 255 257 260 261 263 263 262 261 260 258 255 255 258 259 260 262 259 255 260 nan nan nan nan nan nan nan nan nan nan nan nan nan nan nan nan nan nan nan nan nan nan nan nan nan